{"data":{"norad_id":58858,"epoch":"2026-09-20T22:50:52.696320Z","epoch_age_seconds":113589,"freshness":"FRESH","line1":"1 58858U 24019F   26263.95199880  .00004885  00000+0  18688-3 0  9996","line2":"2 58858  43.0004 226.3275 0001064 277.7888  82.2843 15.27585472148941","mean_motion":15.27585472,"eccentricity":0.0001064,"inclination_deg":43.0004,"raan_deg":226.3275,"arg_perigee_deg":277.7888,"mean_anomaly_deg":82.2843,"bstar":0.00018688,"rev_number":14894,"period_min":94.266411038505,"perigee_km":482.30268249478,"apogee_km":483.76273940927,"semimajor_km":6861.169710952,"source":"CELESTRAK","updated_at":"2026-09-21T09:00:33.987863Z"}}